Location: Table Mountain
(47.2500°N, 120.5778°W)
Time: 21:03:29
(UTC-07:00)

N. Korean satellite - Pass Details

Date: 09 October 2017
Orbit: 459 x 517 km, 97.2° (Epoch: 17 October)

Event Time Altitude Azimuth Distance (km) Brightness Sun altitude
Rises 19:56:36 0° 202° (SSW) 2,561 10.4 -16.3°
Reaches altitude 10° 19:59:10 10° 222° (SW) 1,673 9.7 -16.7°
Maximum altitude 20:01:43 18° 267° (W) 1,238 9.6 -17.1°
Drops below altitude 10° 20:04:16 10° 313° (NW) 1,660 10.1 -17.6°
Sets 20:06:48 0° 333° (NNW) 2,534 10.8 -18.0°
